[[{"header":{"parameterUnit":"m.s-1","parameterCategory":2,"la1":30.2991,"la2":30.254,"lo1":-89.0895,"lo2":-89.0444,"dy":0.0017,"dx":0.0017,"nx":28,"ny":28,"refTime":"2024-06-13T03:00:00:Z","depth":"0","parameterNumber":2,"parameterNumberName":"U-component_of_CURRENTS"},"data":[0,0,0,0,0,0,0,0,0,0,0,0,0,0,0,0,0,0,0,0,0,0,0,0,0,0,0,0,0,0,0,0,0,0,0,0,0,0,0,0,0,0,0,0,0,0,0,0,0,0,0,0,0,0,0,0,0,0,0.2602,0.2604,0,0.2748,0.275,0.2751,0.2819,0.2819,0.2819,0.2819,0.2886,0.2888,0.289,0,0,0,0,0,0,0,0,0,0,0,0,0,0.2477,0.2478,0.2602,0.2604,0.2606,0.2748,0.275,0.2751,0.2819,0.2819,0.2819,0.2819,0.2886,0.2888,0.289,0,0,0,0,0,0,0,0,0,0,0,0,0,0.2566,0.2478,0.2601,0.2658,0.2664,0.2747,0.275,0.2752,0.2819,0.2819,0.2819,0.2819,0.2885,0.2887,0.289,0.2906,0,0,0.2898,0.2899,0,0,0,0,0,0,0,0,0.2561,0.257,0.2647,0.2654,0.2661,0.2767,0.273,0.28,0.2819,0.2759,0.2819,0.2819,0.284,0.2846,0.2873,0.2909,0.2912,0.2898,0.29,0.2901,0.2902,0,0,0,0,0,0,0,0.2554,0.2565,0.2658,0.2649,0.2658,0.2708,0.272,0.2744,0.2795,0.2764,0.277,0.2788,0.2843,0.287,0.2875,0.2913,0.2898,0.2901,0.2902,0.2903,0.2965,0.2965,0,0,0,0,0,0,0.2534,0.2559,0.2654,0.2663,0.2612,0.271,0.2723,0.2732,0.2797,0.2808,0.2788,0.2791,0.2866,0.2871,0.2877,0.2912,0.2901,0.2904,0.2905,0.2965,0.2965,0.2965,0,0,0,0,0,0,0.2531,0.2541,0.2648,0.2616,0.2633,0.2712,0.2721,0.2735,0.2758,0.2816,0.2825,0.2797,0.2866,0.2873,0.2919,0.2915,0.2905,0.2907,0.2965,0.2965,0.2965,0.2974,0,0,0,0,0,0,0.2526,0.2538,0.2535,0.2614,0.2634,0.2693,0.2722,0.2738,0.277,0.2775,0.2826,0.2833,0.2866,0.2915,0.2922,0.2918,0.2909,0.2965,0.2965,0.2965,0.2974,0.2975,0.2975,0,0,0,0,0,0.2521,0.2516,0.2534,0.2546,0.2627,0.2694,0.2708,0.2764,0.277,0.2783,0.2832,0.2831,0.2919,0.2919,0.2926,0.2923,0.2965,0.2965,0.2965,0.2974,0.2975,0.2975,0,0,0,0,0,0,0.2445,0.2525,0.2546,0.256,0.262,0.2705,0.2724,0.2755,0.2804,0.2804,0.285,0.2862,0.29,0.2906,0.2904,0.2938,0.2934,0.2935,0.2937,0.2939,0.2939,0.2927,0.2911,0,0,0,0,0,0.2429,0.2457,0.2532,0.2544,0.257,0.2642,0.2673,0.271,0.2767,0.2788,0.2832,0.2867,0.2906,0.2919,0.2957,0.2977,0.2986,0.2972,0.2972,0.2973,0.2967,0.2995,0.2997,0.2966,0.2966,0.2966,0,0,0.2401,0.2451,0.2464,0.2533,0.2582,0.2629,0.266,0.2703,0.2744,0.2785,0.2845,0.2879,0.2916,0.2956,0.2968,0.2958,0.2987,0.2973,0.2974,0.2967,0.2995,0.2998,0.3001,0.2966,0.2966,0.2966,0,0,0.238,0.2404,0.2431,0.2485,0.256,0.2607,0.2613,0.2695,0.273,0.2788,0.2832,0.2867,0.2919,0.2958,0.2979,0.2997,0.2999,0.2992,0.2978,0.3006,0.3009,0.3012,0.3031,0.3035,0.2981,0.2981,0.2981,0,0.234,0.2385,0.2445,0.2494,0.2532,0.2592,0.2625,0.2678,0.2766,0.2788,0.28,0.2887,0.2922,0.2969,0.2985,0.2999,0.3011,0.2977,0.3008,0.3011,0.3013,0.3032,0.3037,0.2982,0.2982,0.2981,0.2981,0,0.2359,0.2392,0.241,0.2494,0.254,0.2573,0.2655,0.2693,0.2727,0.2776,0.2827,0.2888,0.2932,0.2945,0.2977,0.3008,0.3011,0.3017,0.3007,0.3017,0.3036,0.3041,0.2982,0.2982,0.2982,0.2982,0,0,0.2259,0.2395,0.2399,0.2435,0.2537,0.2571,0.2634,0.2698,0.2719,0.279,0.2818,0.2896,0.2915,0.2939,0.2976,0.2997,0.3039,0.3011,0.3012,0.3032,0.3095,0.299,0.2985,0.3053,0.3054,0.3054,0.3102,0,0.2246,0.2331,0.2401,0.2455,0.2496,0.2569,0.262,0.2685,0.2733,0.2778,0.283,0.2875,0.2918,0.2931,0.2968,0.3024,0.3051,0.3025,0.308,0.3081,0.2988,0.2986,0.2785,0.28,0.3107,0.3108,0.3108,0,0.2228,0.2294,0.2354,0.2439,0.2458,0.2492,0.2554,0.261,0.2691,0.2727,0.2779,0.283,0.2896,0.2916,0.3015,0.2997,0.3048,0.3082,0.3085,0.2983,0.2983,0.2839,0.2797,0.2697,0.3115,0.3115,0.3114,0,0.214,0.224,0.2283,0.2321,0.2437,0.245,0.2493,0.2576,0.2609,0.2688,0.2703,0.2798,0.2827,0.2914,0.2995,0.3015,0.3075,0.3115,0.3068,0.3062,0.2896,0.2872,0.276,0.3175,0.3175,0.3175,0.3175,0,0.2098,0.2122,0.2238,0.2269,0.2283,0.238,0.2391,0.2453,0.2523,0.2551,0.2661,0.2686,0.2826,0.2883,0.2975,0.3013,0.3065,0.3058,0.3061,0.2892,0.2868,0.2778,0.2776,0.3177,0.3177,0.3176,0.3176,0,0.2003,0.2087,0.2129,0.2232,0.2249,0.2255,0.232,0.234,0.2413,0.2451,0.2474,0.2598,0.2676,0.2786,0.2908,0.2956,0.2916,0.3023,0.2804,0.2779,0.2644,0.2652,0.2493,0.244,0.2996,0.2994,0.2992,0,0.1965,0.1988,0.2081,0.21,0.2139,0.2164,0.2189,0.2271,0.23,0.2393,0.2405,0.2484,0.2542,0.2656,0.2718,0.2816,0.2796,0.2701,0.2705,0.2586,0.26,0.2539,0.2504,0.2504,0.2498,0.2493,0.2489,0,0.1895,0.193,0.1987,0.2028,0.2047,0.2063,0.21,0.2099,0.22,0.2221,0.2271,0.2316,0.2404,0.2393,0.2481,0.2536,0.2515,0.2606,0.2536,0.2235,0.2107,0.2073,0.2534,0.2446,0.245,0.2454,0.2456,0.2458,0.1834,0.1851,0.1936,0.1955,0.1978,0.1972,0.194,0.1986,0.1989,0.2004,0.2098,0.2103,0.2117,0.2203,0.224,0.2119,0.2234,0.2074,0.2108,0.2069,0.1946,0.2301,0.2181,0.2183,0.2186,0.2188,0.2189,0,0.1774,0.1824,0.186,0.1892,0.1879,0.1907,0.1898,0.185,0.181,0.1844,0.1851,0.1797,0.1732,0.1771,0.168,0.1625,0.1601,0.1582,0.1451,0.1463,0.1805,0.1707,0.1409,0.1409,0.1409,0.1409,0.1409,0.1409,0.1754,0.1787,0.1817,0.1794,0.1796,0.1723,0.1682,0.162,0.161,0.1517,0.1472,0.1482,0.147,0.1333,0.1215,0.1205,0.1169,0.1046,0.1168,0.1394,0.1443,0.1489,0.1392,0.1033,0.1032,0.0694,0.0692,0.069]},{"header":{"parameterUnit":"m.s-1","parameterCategory":2,"la1":30.2991,"la2":30.254,"lo1":-89.0895,"lo2":-89.0444,"dy":0.0017,"dx":0.0017,"nx":28,"ny":28,"refTime":"2024-06-13T03:00:00:Z","depth":"0","parameterNumber":3,"parameterNumberName":"V-component_of_CURRENTS"},"data":[0,0,0,0,0,0,0,0,0,0,0,0,0,0,0,0,0,0,0,0,0,0,0,0,0,0,0,0,0,0,0,0,0,0,0,0,0,0,0,0,0,0,0,0,0,0,0,0,0,0,0,0,0,0,0,0,0,0,-0.0827,-0.0829,0,-0.0994,-0.0995,-0.0997,-0.1067,-0.1067,-0.1067,-0.1067,-0.1147,-0.1149,-0.1151,0,0,0,0,0,0,0,0,0,0,0,0,0,-0.0507,-0.0513,-0.0826,-0.0829,-0.0831,-0.0994,-0.0996,-0.0997,-0.1067,-0.1067,-0.1067,-0.1067,-0.1146,-0.1149,-0.1151,0,0,0,0,0,0,0,0,0,0,0,0,0,-0.0654,-0.0515,-0.0826,-0.0888,-0.0895,-0.0993,-0.0996,-0.0998,-0.1067,-0.1067,-0.1067,-0.1067,-0.1145,-0.1148,-0.1152,-0.1173,0,0,-0.1162,-0.1163,0,0,0,0,0,0,0,0,-0.0646,-0.0666,-0.0876,-0.0884,-0.0892,-0.1012,-0.0913,-0.1053,-0.1067,-0.0998,-0.1067,-0.1067,-0.1096,-0.1103,-0.1131,-0.1177,-0.118,-0.1162,-0.1164,-0.1165,-0.1166,0,0,0,0,0,0,0,-0.0636,-0.0658,-0.0889,-0.0879,-0.0889,-0.0887,-0.0908,-0.0939,-0.1041,-0.1004,-0.101,-0.1034,-0.1099,-0.1128,-0.1133,-0.1181,-0.1162,-0.1165,-0.1167,-0.1168,-0.1212,-0.1211,0,0,0,0,0,0,-0.0626,-0.065,-0.0884,-0.0895,-0.077,-0.0893,-0.0916,-0.0971,-0.1043,-0.1056,-0.1034,-0.1037,-0.1123,-0.113,-0.1136,-0.114,-0.1165,-0.1168,-0.117,-0.1213,-0.1212,-0.1211,0,0,0,0,0,0,-0.0619,-0.0647,-0.0878,-0.0776,-0.0806,-0.09,-0.096,-0.0975,-0.1006,-0.1067,-0.1077,-0.1051,-0.1123,-0.1132,-0.116,-0.1145,-0.117,-0.1173,-0.1214,-0.1213,-0.1211,-0.1164,0,0,0,0,0,0,-0.061,-0.0644,-0.0667,-0.0777,-0.0811,-0.0936,-0.0961,-0.0978,-0.1022,-0.1027,-0.1085,-0.1092,-0.1123,-0.1155,-0.1163,-0.115,-0.1175,-0.1215,-0.1213,-0.1212,-0.1166,-0.1161,-0.1157,0,0,0,0,0,-0.0598,-0.0628,-0.0668,-0.0695,-0.0846,-0.0937,-0.0954,-0.1016,-0.1023,-0.1041,-0.1071,-0.1091,-0.1151,-0.1157,-0.1167,-0.1154,-0.1215,-0.1214,-0.1212,-0.1168,-0.1162,-0.1157,0,0,0,0,0,0,-0.0478,-0.0642,-0.0687,-0.0759,-0.0844,-0.095,-0.0968,-0.1012,-0.1053,-0.1045,-0.1093,-0.1104,-0.112,-0.1142,-0.1149,-0.116,-0.1181,-0.1181,-0.1145,-0.1139,-0.1134,-0.1111,-0.1178,0,0,0,0,0,-0.0471,-0.0547,-0.0682,-0.0732,-0.0777,-0.087,-0.0909,-0.0956,-0.1015,-0.1034,-0.1077,-0.1103,-0.1121,-0.1134,-0.1161,-0.1175,-0.1158,-0.1168,-0.1163,-0.1159,-0.1145,-0.1111,-0.1102,-0.1205,-0.1205,-0.1205,0,0,-0.0428,-0.0532,-0.0567,-0.0712,-0.0779,-0.0846,-0.0893,-0.0951,-0.0987,-0.1032,-0.1072,-0.1093,-0.1121,-0.1136,-0.1143,-0.1153,-0.1116,-0.1156,-0.1153,-0.1141,-0.1108,-0.1098,-0.1089,-0.1204,-0.1204,-0.1205,0,0,-0.0391,-0.0485,-0.054,-0.0623,-0.0739,-0.0805,-0.0822,-0.0933,-0.096,-0.101,-0.1033,-0.1039,-0.1098,-0.1102,-0.1112,-0.1093,-0.1093,-0.1104,-0.1062,-0.103,-0.1021,-0.1013,-0.0956,-0.0944,-0.11,-0.11,-0.1099,0,-0.0327,-0.044,-0.0555,-0.0633,-0.0687,-0.0787,-0.0833,-0.0886,-0.0982,-0.0985,-0.1012,-0.1046,-0.1075,-0.1061,-0.1058,-0.108,-0.1058,-0.1084,-0.1022,-0.1014,-0.1006,-0.0951,-0.0938,-0.1097,-0.1097,-0.1098,-0.1098,0,-0.0349,-0.0435,-0.0466,-0.0612,-0.0673,-0.0728,-0.083,-0.0866,-0.0906,-0.0951,-0.0954,-0.0987,-0.0999,-0.1008,-0.1035,-0.0991,-0.099,-0.1021,-0.1035,-0.0993,-0.0937,-0.0924,-0.1093,-0.1094,-0.1095,-0.1096,0,0,-0.0226,-0.0441,-0.0451,-0.0509,-0.0669,-0.0712,-0.0765,-0.0831,-0.0827,-0.0896,-0.0876,-0.0912,-0.0917,-0.0926,-0.0945,-0.0923,-0.0851,-0.0949,-0.0949,-0.0888,-0.0758,-0.0716,-0.0697,-0.0877,-0.0875,-0.0873,-0.0732,0,-0.0205,-0.0325,-0.0442,-0.0515,-0.0581,-0.0683,-0.0718,-0.0775,-0.0814,-0.0818,-0.0834,-0.0827,-0.0891,-0.0871,-0.0865,-0.0849,-0.0818,-0.0885,-0.0812,-0.0809,-0.0773,-0.0681,-0.0649,-0.0517,-0.0719,-0.0717,-0.0715,0,-0.0196,-0.0284,-0.0357,-0.048,-0.0509,-0.0548,-0.0591,-0.0638,-0.0674,-0.0694,-0.0699,-0.0723,-0.0694,-0.0754,-0.0704,-0.0746,-0.0747,-0.0742,-0.0737,-0.0705,-0.0742,-0.0596,-0.0486,-0.0534,-0.0695,-0.0697,-0.0698,0,-0.006,-0.0216,-0.026,-0.0313,-0.0462,-0.0467,-0.0519,-0.0574,-0.0581,-0.0592,-0.0572,-0.0581,-0.0543,-0.0559,-0.0576,-0.063,-0.0509,-0.0581,-0.054,-0.0537,-0.0495,-0.0491,-0.0417,-0.054,-0.054,-0.0541,-0.0541,0,-0.0015,-0.005,-0.0193,-0.0222,-0.0233,-0.0356,-0.0341,-0.0396,-0.0423,-0.0395,-0.0479,-0.043,-0.0494,-0.0459,-0.0504,-0.0453,-0.0448,-0.0494,-0.0487,-0.0476,-0.0472,-0.0505,-0.0551,-0.0535,-0.0537,-0.0538,-0.0538,0,0.011,0.0007,-0.0045,-0.016,-0.0184,-0.018,-0.0252,-0.024,-0.0279,-0.0234,-0.0225,-0.0269,-0.0225,-0.0278,-0.0264,-0.0321,-0.0296,-0.0297,-0.0266,-0.0258,-0.0287,-0.0332,-0.0194,-0.0199,-0.0214,-0.0212,-0.021,0,0.0144,0.0129,0.0036,0.0022,-0.0031,-0.0054,-0.0069,-0.0148,-0.0136,-0.0125,-0.0079,-0.0044,-0.001,0.0025,-0.0054,-0.0075,-0.0173,-0.0083,-0.0192,-0.0239,-0.0285,-0.0305,-0.0323,-0.0108,-0.0105,-0.0103,-0.0102,0,0.022,0.0204,0.0161,0.0137,0.0122,0.0096,0.0075,0.0102,0.0044,0.0093,0.0162,0.0199,0.0209,0.0204,0.0145,0.0093,-0.0085,-0.0043,-0.01,-0.0182,-0.0187,-0.0206,-0.0243,-0.0084,-0.0086,-0.0087,-0.0088,-0.0089,0.0292,0.0295,0.0253,0.0237,0.0225,0.0232,0.0239,0.0241,0.0285,0.0335,0.0363,0.0436,0.0386,0.0312,0.024,0.0101,0.0069,0.0026,-0.0014,-0.0021,-0.0052,-0.0032,0.0125,0.0124,0.0124,0.0123,0.0123,0,0.0346,0.0341,0.0339,0.0316,0.0334,0.0301,0.0314,0.0328,0.0401,0.0479,0.0548,0.06,0.0543,0.041,0.0241,0.0139,0.007,0.0066,0.0019,0.0002,0.0023,-0.0004,0.0142,0.0142,0.0142,0.0143,0.0143,0.0143,0.0369,0.0381,0.0375,0.0407,0.0407,0.0421,0.0435,0.0465,0.0512,0.0607,0.0674,0.0716,0.0637,0.0374,0.017,0.0105,0.0006,0.0031,-0.0029,-0.007,-0.0079,-0.0088,-0.0125,-0.0006,-0.0006,-0.0032,-0.0032,-0.0033]}],[{"header":{"parameterUnit":"m.s-1","parameterCategory":2,"la1":30.2991,"la2":30.254,"lo1":-89.0895,"lo2":-89.0444,"dy":0.0017,"dx":0.0017,"nx":28,"ny":28,"refTime":"2024-06-13T03:00:00:Z","depth":"2","parameterNumber":2,"parameterNumberName":"U-component_of_CURRENTS"},"data":[0,0,0,0,0,0,0,0,0,0,0,0,0,0,0,0,0,0,0,0,0,0,0,0,0,0,0,0,0,0,0,0,0,0,0,0,0,0,0,0,0,0,0,0,0,0,0,0,0,0,0,0,0,0,0,0,0,0,0.1799,0.18,0,0.1842,0.1842,0.1842,0.1855,0.1855,0.1855,0.1855,0.185,0.185,0.185,0,0,0,0,0,0,0,0,0,0,0,0,0,0.1786,0.1785,0.1799,0.18,0.1801,0.1842,0.1842,0.1842,0.1855,0.1855,0.1855,0.1855,0.1851,0.185,0.185,0,0,0,0,0,0,0,0,0,0,0,0,0,0.1802,0.1785,0.1799,0.1815,0.1818,0.1842,0.1842,0.1842,0.1855,0.1855,0.1855,0.1855,0.1851,0.185,0.185,0.1842,0,0,0.1849,0.1848,0,0,0,0,0,0,0,0,0.1801,0.1802,0.1812,0.1814,0.1817,0.1847,0.1836,0.1841,0.1855,0.1836,0.1855,0.1856,0.1847,0.1847,0.1849,0.1842,0.1842,0.1848,0.1848,0.1848,0.1848,0,0,0,0,0,0,0,0.18,0.1801,0.1812,0.1813,0.1816,0.184,0.1842,0.1837,0.1836,0.1838,0.184,0.1851,0.1848,0.185,0.1849,0.1842,0.1848,0.1848,0.1848,0.1848,0.1876,0.1877,0,0,0,0,0,0,0.18,0.1799,0.1811,0.1814,0.1814,0.1841,0.1842,0.1834,0.1837,0.1839,0.1851,0.1852,0.185,0.185,0.1849,0.1915,0.1848,0.1848,0.1847,0.1875,0.1876,0.1877,0,0,0,0,0,0,0.1799,0.1799,0.1809,0.1812,0.1816,0.184,0.1831,0.1835,0.1857,0.1848,0.1849,0.1872,0.1851,0.185,0.187,0.1912,0.1847,0.1847,0.1874,0.1875,0.1877,0.1998,0,0,0,0,0,0,0.1798,0.1798,0.1798,0.1811,0.1816,0.1834,0.1831,0.1835,0.1864,0.1866,0.1866,0.1865,0.1851,0.1871,0.187,0.191,0.1847,0.1872,0.1874,0.1876,0.1993,0.2004,0.2013,0,0,0,0,0,0.1797,0.1809,0.1797,0.1799,0.1811,0.1835,0.1839,0.1856,0.1865,0.1876,0.1886,0.1866,0.1881,0.1872,0.187,0.1911,0.1871,0.1874,0.1876,0.1988,0.2001,0.2013,0,0,0,0,0,0,0.1801,0.1812,0.1799,0.1811,0.1822,0.1839,0.1865,0.1869,0.1885,0.1899,0.1882,0.1882,0.1918,0.1889,0.1879,0.1921,0.1872,0.1874,0.1958,0.197,0.1979,0.1975,0.1846,0,0,0,0,0,0.1799,0.1814,0.1816,0.1827,0.1838,0.1851,0.1867,0.1877,0.1894,0.1903,0.1901,0.1905,0.1921,0.1926,0.1927,0.1948,0.1945,0.1969,0.198,0.1988,0.1982,0.205,0.2067,0.1885,0.1884,0.1884,0,0,0.1804,0.1815,0.1821,0.1831,0.1846,0.1866,0.1862,0.19,0.1919,0.1899,0.1933,0.1943,0.1935,0.1969,0.1981,0.1954,0.2035,0.1991,0.2,0.1987,0.2054,0.2072,0.2088,0.1886,0.1886,0.1886,0,0,0.1828,0.1832,0.1848,0.1863,0.1892,0.1902,0.1916,0.1938,0.1953,0.1987,0.1985,0.202,0.2028,0.2038,0.2044,0.2103,0.2091,0.2102,0.215,0.2218,0.2235,0.2249,0.2261,0.2276,0.2104,0.2104,0.2104,0,0.1829,0.1842,0.1859,0.188,0.1901,0.192,0.1941,0.1963,0.1987,0.2005,0.2012,0.2063,0.2064,0.2112,0.2139,0.2129,0.2148,0.2114,0.2236,0.225,0.2262,0.2271,0.2286,0.211,0.2109,0.2109,0.2108,0,0.1851,0.1871,0.1895,0.1918,0.1943,0.1974,0.2,0.2031,0.2063,0.2077,0.2139,0.2157,0.2185,0.2201,0.2194,0.2277,0.2254,0.2251,0.2214,0.2289,0.2292,0.2305,0.2119,0.2117,0.2115,0.2113,0,0,0.1805,0.189,0.1895,0.1919,0.1967,0.1991,0.2042,0.208,0.2118,0.2163,0.2213,0.2268,0.2286,0.2292,0.2298,0.2353,0.2466,0.2347,0.2348,0.2373,0.2593,0.2367,0.2359,0.2506,0.2509,0.2512,0.2558,0,0.1804,0.1871,0.1904,0.1957,0.1988,0.2032,0.207,0.2117,0.2164,0.2217,0.2267,0.2312,0.2318,0.2348,0.2417,0.2444,0.2507,0.2451,0.2502,0.2502,0.2306,0.2369,0.2202,0.2211,0.257,0.2572,0.2574,0,0.1779,0.184,0.19,0.1984,0.2,0.2026,0.2104,0.2147,0.2224,0.2265,0.2337,0.2366,0.2442,0.2449,0.256,0.2532,0.2578,0.2602,0.2605,0.2356,0.23,0.2194,0.2221,0.2595,0.2593,0.2592,0.259,0,0.1732,0.182,0.1878,0.1905,0.2002,0.2031,0.208,0.2155,0.2186,0.2293,0.2323,0.2428,0.2462,0.2565,0.2594,0.261,0.2698,0.2723,0.2561,0.2545,0.2384,0.2346,0.283,0.283,0.283,0.283,0.283,0,0.1707,0.1747,0.1861,0.1892,0.1941,0.2017,0.2062,0.213,0.2206,0.2235,0.234,0.2366,0.2503,0.2549,0.2617,0.2586,0.272,0.2565,0.2548,0.2414,0.238,0.2692,0.2676,0.2832,0.2831,0.2831,0.2831,0,0.1638,0.1723,0.1777,0.1888,0.1916,0.1949,0.2025,0.2059,0.2144,0.219,0.2219,0.2325,0.2369,0.2447,0.2571,0.2553,0.2585,0.255,0.2336,0.229,0.2393,0.2382,0.24,0.2393,0.2387,0.2381,0.2377,0,0.1611,0.1636,0.1746,0.1777,0.1822,0.1881,0.1913,0.2013,0.204,0.2139,0.2146,0.2203,0.2196,0.2237,0.2245,0.2271,0.2411,0.2111,0.2097,0.2369,0.2353,0.2352,0.235,0.1956,0.1948,0.1942,0.1937,0,0.1539,0.1575,0.1633,0.1705,0.1745,0.1789,0.1843,0.1843,0.195,0.1956,0.1963,0.1963,0.197,0.1881,0.1874,0.1893,0.2086,0.1976,0.2373,0.2042,0.1941,0.1927,0.1942,0.1882,0.1888,0.1892,0.1895,0.1897,0.1464,0.1482,0.1565,0.1609,0.1667,0.1696,0.1677,0.1706,0.1701,0.1671,0.1735,0.1646,0.1671,0.1526,0.151,0.1522,0.1681,0.1663,0.1688,0.1719,0.1611,0.1499,0.1337,0.1339,0.1341,0.1343,0.1344,0,0.1384,0.1429,0.1468,0.1522,0.1526,0.1616,0.1625,0.156,0.1478,0.1446,0.1377,0.1206,0.1127,0.1188,0.111,0.1107,0.1189,0.1082,0.1204,0.1256,0.1303,0.1181,0.079,0.0788,0.0787,0.0785,0,0,0.136,0.1364,0.1384,0.1366,0.141,0.1399,0.1385,0.1277,0.1214,0.1052,0.0958,0.0969,0.1061,0.0863,0.0872,0.0815,0.1032,0.0784,0.1224,0.1413,0.1458,0.1624,0.149,0,0,0,0,0]},{"header":{"parameterUnit":"m.s-1","parameterCategory":2,"la1":30.2991,"la2":30.254,"lo1":-89.0895,"lo2":-89.0444,"dy":0.0017,"dx":0.0017,"nx":28,"ny":28,"refTime":"2024-06-13T03:00:00:Z","depth":"2","parameterNumber":3,"parameterNumberName":"V-component_of_CURRENTS"},"data":[0,0,0,0,0,0,0,0,0,0,0,0,0,0,0,0,0,0,0,0,0,0,0,0,0,0,0,0,0,0,0,0,0,0,0,0,0,0,0,0,0,0,0,0,0,0,0,0,0,0,0,0,0,0,0,0,0,0,0.0004,0.0003,0,0.0014,0.0015,0.0015,0.0027,0.0027,0.0027,0.0027,0.0018,0.0018,0.0018,0,0,0,0,0,0,0,0,0,0,0,0,0,0.0097,0.0095,0.0004,0.0003,0.0003,0.0014,0.0015,0.0015,0.0028,0.0027,0.0027,0.0026,0.0018,0.0018,0.0018,0,0,0,0,0,0,0,0,0,0,0,0,0,0.0082,0.0095,0.0004,0.0007,0.0007,0.0014,0.0015,0.0016,0.0028,0.0027,0.0027,0.0026,0.0018,0.0018,0.0018,0.0028,0,0,0.0019,0.0019,0,0,0,0,0,0,0,0,0.0082,0.0079,0.0006,0.0006,0.0006,0.0014,0.0044,0.0017,0.0028,0.0025,0.0027,0.0026,0.0012,0.0013,0.0023,0.0027,0.0027,0.0019,0.0019,0.0019,0.0019,0,0,0,0,0,0,0,0.0083,0.0079,0.0013,0.0006,0.0006,0.0042,0.0039,0.004,0.0025,0.0025,0.0025,0.0018,0.0013,0.0023,0.0023,0.0027,0.0019,0.0019,0.0019,0.0019,0.0012,0.0012,0,0,0,0,0,0,0.0066,0.0079,0.0013,0.0013,0.0038,0.004,0.0037,0.0017,0.0025,0.0025,0.0018,0.0018,0.0023,0.0023,0.0023,0.0028,0.0019,0.0019,0.0019,0.0013,0.0012,0.0012,0,0,0,0,0,0,0.0068,0.006,0.0012,0.0044,0.0039,0.0038,0.0016,0.0017,0.0012,0.0019,0.0019,0.0009,0.0023,0.0023,0.003,0.0028,0.0019,0.0019,0.0013,0.0012,0.0012,0.0043,0,0,0,0,0,0,0.007,0.006,0.0044,0.0041,0.0036,0.0011,0.0015,0.0017,0.0006,0.0006,0.0011,0.0011,0.0023,0.003,0.003,0.0028,0.0019,0.0013,0.0013,0.0012,0.0042,0.0044,0.0045,0,0,0,0,0,0.0074,0.0053,0.0043,0.0035,0.0012,0.0011,0.0013,0.0015,0.0006,0.0008,0.0018,0.001,0.0026,0.003,0.003,0.0028,0.0013,0.0013,0.0012,0.0042,0.0043,0.0045,0,0,0,0,0,0,0.0098,0.0052,0.0041,0.001,0.0006,0.0011,0.0007,0.0004,0.0014,0.0007,0.0018,0.0019,0.0025,0.0017,0.0021,0.0022,0.0013,0.0013,0.0035,0.0037,0.0039,0.0051,0.0019,0,0,0,0,0,0.009,0.0059,0.0035,0.0017,0.0003,0.0001,-0.0001,-0.0004,0.0001,0.0004,0.0009,0.0011,0.0026,0.0024,0.0033,0.0033,0.0038,0.0027,0.0028,0.003,0.0038,0.0054,0.0058,0.001,0.001,0.001,0,0,0.0102,0.0069,0.0056,0.0019,0.0013,0.0009,-0.0,-0.0013,-0.0001,0.0,0.0015,0.0019,0.0028,0.0041,0.004,0.0032,0.0043,0.0029,0.003,0.0038,0.0054,0.0059,0.0063,0.001,0.001,0.001,0,0,0.011,0.0069,0.0046,0.0034,0.0005,0.0006,-0.0005,-0.0014,-0.0008,0.0003,0.0013,0.0024,0.0026,0.005,0.0059,0.0068,0.0055,0.0046,0.0062,0.0077,0.0081,0.0086,0.0093,0.0098,0.0042,0.0042,0.0042,0,0.0125,0.009,0.0048,0.0026,0.0024,0.0001,-0.0,0.0005,0.0008,0.0022,0.0006,0.0041,0.0041,0.0082,0.0082,0.0075,0.007,0.0059,0.0081,0.0085,0.0089,0.0096,0.0101,0.0043,0.0043,0.0043,0.0043,0,0.0124,0.0094,0.0081,0.0045,0.004,0.0034,0.0025,0.0027,0.0023,0.0036,0.0062,0.0075,0.0094,0.009,0.0088,0.0112,0.0095,0.0088,0.0083,0.0096,0.0102,0.0106,0.0045,0.0045,0.0044,0.0044,0,0,0.0164,0.0093,0.0091,0.0082,0.0048,0.0051,0.0058,0.0075,0.0092,0.0092,0.013,0.0146,0.0136,0.0145,0.0142,0.0152,0.0169,0.012,0.012,0.0137,0.0189,0.0149,0.015,0.0157,0.0158,0.0158,0.0181,0,0.0183,0.0153,0.0115,0.0119,0.0109,0.009,0.0106,0.0116,0.0125,0.0153,0.0167,0.0189,0.0161,0.0162,0.0171,0.0178,0.0182,0.0163,0.0164,0.0165,0.0136,0.0154,0.0148,0.0165,0.0186,0.0186,0.0187,0,0.0202,0.0178,0.0173,0.0153,0.0148,0.0151,0.0176,0.0183,0.0208,0.0209,0.0226,0.0228,0.0253,0.0217,0.0239,0.0221,0.0199,0.02,0.0201,0.0158,0.0133,0.0154,0.0172,0.0194,0.0194,0.0193,0.0193,0,0.0267,0.0228,0.023,0.0223,0.0194,0.0199,0.0193,0.0206,0.022,0.0239,0.0253,0.0276,0.0279,0.028,0.0261,0.0243,0.0283,0.0263,0.0213,0.021,0.0204,0.0198,0.027,0.027,0.027,0.027,0.027,0,0.0304,0.0304,0.0257,0.0259,0.0273,0.0237,0.0258,0.0254,0.0263,0.03,0.0276,0.0321,0.0287,0.0303,0.0288,0.0267,0.03,0.0224,0.0217,0.0211,0.0206,0.023,0.0225,0.0271,0.0271,0.0271,0.0271,0,0.0359,0.0326,0.0332,0.0307,0.0296,0.0307,0.0278,0.0302,0.0287,0.0336,0.0339,0.0347,0.0357,0.0334,0.0334,0.0288,0.0288,0.0266,0.0254,0.0243,0.0197,0.0193,0.022,0.0219,0.0218,0.0217,0.0216,0,0.0375,0.0384,0.0375,0.0379,0.036,0.0352,0.0353,0.0321,0.0354,0.0379,0.043,0.0419,0.0453,0.0423,0.0337,0.029,0.029,0.0227,0.0191,0.0204,0.0194,0.0192,0.0189,0.0199,0.0198,0.0197,0.0197,0,0.042,0.0426,0.0436,0.0446,0.0446,0.0434,0.0436,0.0462,0.0454,0.0494,0.0565,0.0584,0.0514,0.0454,0.0325,0.0291,0.0234,0.0209,0.0253,0.0199,0.0182,0.0173,0.0172,0.0191,0.0192,0.0192,0.0192,0.0193,0.0461,0.0492,0.0512,0.0528,0.0524,0.0524,0.0527,0.0553,0.0595,0.0637,0.0668,0.0671,0.057,0.0396,0.0315,0.0182,0.0191,0.0148,0.0152,0.0155,0.0135,0.0116,0.0109,0.0109,0.011,0.011,0.011,0,0.05,0.0544,0.0582,0.0598,0.0611,0.0573,0.0596,0.0601,0.0666,0.0689,0.0725,0.0623,0.0541,0.0423,0.0217,0.0111,0.0105,0.0081,0.0108,0.0114,0.0119,0.0098,0.0062,0.0062,0.0062,0.0061,0,0,0.0522,0.0586,0.0624,0.0676,0.0672,0.0655,0.0661,0.0674,0.0686,0.0694,0.0677,0.0671,0.055,0.0401,0.027,0.0162,0.0155,0.0133,0.018,0.0232,0.0239,0.0165,0.014,0,0,0,0,0]}],[{"header":{"parameterUnit":"m.s-1","parameterCategory":2,"la1":30.2991,"la2":30.254,"lo1":-89.0895,"lo2":-89.0444,"dy":0.0017,"dx":0.0017,"nx":28,"ny":28,"refTime":"2024-06-13T03:00:00:Z","depth":"4","parameterNumber":2,"parameterNumberName":"U-component_of_CURRENTS"},"data":[0,0,0,0,0,0,0,0,0,0,0,0,0,0,0,0,0,0,0,0,0,0,0,0,0,0,0,0,0,0,0,0,0,0,0,0,0,0,0,0,0,0,0,0,0,0,0,0,0,0,0,0,0,0,0,0,0,0,0.0198,0.0197,0,0.0031,0.0029,0.0026,-0.0022,-0.002,-0.0019,-0.0017,0.0009,0.0008,0.0007,0,0,0,0,0,0,0,0,0,0,0,0,0,0.0283,0.0283,0.0198,0.0197,0.0195,0.0032,0.0029,0.0026,-0.0022,-0.002,-0.0018,-0.0016,0.0009,0.0008,0.0007,0,0,0,0,0,0,0,0,0,0,0,0,0,0.0188,0.0282,0.0199,0.0157,0.0153,0.0032,0.0029,0.0025,-0.0023,-0.002,-0.0018,-0.0016,0.0009,0.0008,0.0007,-0.0048,0,0,0.0003,0.0003,0,0,0,0,0,0,0,0,0.0194,0.0184,0.0165,0.016,0.0155,0.0035,0.0068,0.0013,-0.0023,0.0036,-0.0017,-0.0014,0.0039,0.0035,-0.0015,-0.0047,-0.0046,0.0003,0.0003,0.0002,0.0002,0,0,0,0,0,0,0,0.02,0.019,0.0124,0.0163,0.0157,0.0082,0.0072,0.0055,0.0024,0.0031,0.0029,0.0022,0.0036,-0.0014,-0.0014,-0.0045,0.0003,0.0002,0.0002,0.0001,0.0102,0.0105,0,0,0,0,0,0,0.0243,0.0197,0.013,0.012,0.0189,0.008,0.0068,0.0065,0.002,0.0015,0.002,0.002,-0.0013,-0.0013,-0.0013,0.0069,0.0002,0.0001,0.0,0.0098,0.0102,0.0106,0,0,0,0,0,0,0.0246,0.0239,0.0137,0.016,0.0143,0.0078,0.0073,0.006,0.0045,0.001,0.0009,0.0024,-0.0012,-0.0011,-0.0004,0.0065,0.0001,-0.0001,0.0094,0.01,0.0104,0.0138,0,0,0,0,0,0,0.0249,0.0241,0.0247,0.0164,0.0144,0.0091,0.0071,0.0055,0.0038,0.0038,0.0013,0.0015,-0.001,-0.0002,-0.0005,0.0062,-0.0002,0.009,0.0097,0.0103,0.0133,0.0144,0.0153,0,0,0,0,0,0.0253,0.0247,0.0248,0.024,0.0157,0.0091,0.0073,0.0028,0.0037,0.0025,0.0014,0.0017,0.004,-0.0004,-0.0007,0.0062,0.0087,0.0095,0.0102,0.0128,0.0141,0.0153,0,0,0,0,0,0,0.0288,0.024,0.0239,0.0223,0.018,0.0087,0.0067,0.0047,0.0017,0.0032,0.0011,0.001,0.0056,0.0055,0.0009,0.0121,0.0085,0.0092,0.0106,0.0118,0.0128,0.0136,-0.0002,0,0,0,0,0,0.0302,0.0281,0.0236,0.022,0.0211,0.0149,0.0119,0.0093,0.0057,0.0045,0.0039,0.0056,0.0074,0.0092,0.0096,0.0124,0.0109,0.0189,0.0199,0.0207,0.0218,0.0247,0.026,0.0131,0.0131,0.0131,0,0,0.0305,0.0281,0.0267,0.0226,0.0188,0.0168,0.0135,0.0101,0.0092,0.0057,0.0062,0.0077,0.0089,0.0125,0.0152,0.0137,0.0231,0.0217,0.0222,0.023,0.0256,0.0268,0.0279,0.0136,0.0135,0.0135,0,0,0.0288,0.0295,0.0269,0.0252,0.0217,0.0184,0.0194,0.014,0.013,0.013,0.0125,0.0166,0.0189,0.0199,0.0213,0.0286,0.0277,0.0336,0.0392,0.0421,0.043,0.0438,0.0398,0.0402,0.0349,0.0349,0.0349,0,0.0311,0.0272,0.025,0.0237,0.0233,0.0211,0.02,0.0176,0.0135,0.0152,0.0159,0.0222,0.0223,0.0275,0.0312,0.0306,0.0306,0.033,0.0429,0.0437,0.0445,0.0402,0.0406,0.0352,0.0351,0.0351,0.0351,0,0.0269,0.0259,0.0251,0.0238,0.0231,0.0216,0.0208,0.0221,0.0241,0.0233,0.03,0.0294,0.0349,0.0375,0.036,0.0445,0.0418,0.0423,0.0381,0.0459,0.0409,0.0413,0.0355,0.0354,0.0354,0.0353,0,0,0.0295,0.0231,0.0238,0.024,0.0239,0.0231,0.0254,0.0264,0.0311,0.0322,0.0383,0.0422,0.0456,0.0476,0.0483,0.0511,0.0543,0.0509,0.0509,0.044,0.0573,0.0559,0.056,0.0577,0.0579,0.0581,0.0499,0,0.0282,0.0234,0.0222,0.0229,0.022,0.0251,0.028,0.0307,0.0344,0.0404,0.0437,0.0499,0.0483,0.0538,0.0563,0.0559,0.0565,0.0562,0.0535,0.0533,0.0488,0.0569,0.0587,0.0502,0.0503,0.0503,0.0504,0,0.0259,0.0236,0.0204,0.0235,0.0246,0.0276,0.0364,0.0386,0.0465,0.0503,0.0577,0.0604,0.0654,0.0641,0.065,0.066,0.0629,0.0607,0.0604,0.0587,0.053,0.0424,0.051,0.051,0.0509,0.0509,0.0508,0,0.025,0.0247,0.0217,0.0225,0.025,0.0301,0.0356,0.0437,0.0464,0.0586,0.0629,0.0697,0.0737,0.0735,0.0709,0.0694,0.0706,0.0665,0.0601,0.0595,0.0606,0.0599,0.067,0.067,0.067,0.067,0.067,0,0.0233,0.0239,0.023,0.0218,0.0277,0.0329,0.0411,0.0479,0.0566,0.062,0.0693,0.0738,0.0777,0.0786,0.0743,0.0697,0.0729,0.0623,0.0599,0.0619,0.0614,0.0605,0.0599,0.0667,0.0668,0.0668,0.0669,0,0.0224,0.0189,0.0175,0.0213,0.0247,0.031,0.0416,0.0482,0.0571,0.0645,0.0687,0.0771,0.0816,0.0809,0.0806,0.0731,0.0691,0.066,0.0661,0.0636,0.0528,0.0525,0.055,0.055,0.0549,0.0549,0.0549,0,0.0205,0.0176,0.0163,0.0178,0.0209,0.0304,0.0371,0.0475,0.0535,0.0651,0.0684,0.077,0.0819,0.078,0.0791,0.0716,0.0696,0.0628,0.0599,0.0555,0.0528,0.0526,0.0523,0.0548,0.0548,0.0547,0.0547,0,0.0194,0.0166,0.0146,0.0143,0.0203,0.0253,0.0366,0.0398,0.0529,0.0595,0.0679,0.0707,0.0759,0.0771,0.0753,0.0687,0.0657,0.0622,0.062,0.0592,0.0552,0.0525,0.0523,0.0546,0.0546,0.0546,0.0546,0,0.0202,0.0175,0.011,0.0137,0.017,0.0204,0.0268,0.0369,0.0426,0.0577,0.0609,0.0699,0.0784,0.0755,0.0729,0.0699,0.0642,0.0551,0.0552,0.0554,0.0598,0.055,0.0541,0,0,0,0,0,0.0225,0.016,0.0133,0.0112,0.0134,0.016,0.0259,0.0329,0.0461,0.0508,0.0557,0.0618,0.0634,0.067,0.0631,0.0676,0.0616,0.0617,0.0505,0.0536,0.0538,0.0592,0,0,0,0,0,0,0.0226,0.0163,0.0103,0.0078,0.0088,0.0112,0.0176,0.0269,0.0308,0.0445,0.0476,0.0542,0.0582,0.0661,0.0614,0.0615,0.0514,0.0662,0.0659,0.0535,0.0537,0.0538,0.0595,0,0,0,0,0]},{"header":{"parameterUnit":"m.s-1","parameterCategory":2,"la1":30.2991,"la2":30.254,"lo1":-89.0895,"lo2":-89.0444,"dy":0.0017,"dx":0.0017,"nx":28,"ny":28,"refTime":"2024-06-13T03:00:00:Z","depth":"4","parameterNumber":3,"parameterNumberName":"V-component_of_CURRENTS"},"data":[0,0,0,0,0,0,0,0,0,0,0,0,0,0,0,0,0,0,0,0,0,0,0,0,0,0,0,0,0,0,0,0,0,0,0,0,0,0,0,0,0,0,0,0,0,0,0,0,0,0,0,0,0,0,0,0,0,0,0.0389,0.039,0,0.0452,0.0452,0.0453,0.0532,0.0533,0.0535,0.0536,0.076,0.0765,0.0769,0,0,0,0,0,0,0,0,0,0,0,0,0,0.0321,0.0321,0.0389,0.039,0.0391,0.0452,0.0452,0.0453,0.0532,0.0533,0.0535,0.0536,0.0759,0.0764,0.077,0,0,0,0,0,0,0,0,0,0,0,0,0,0.0362,0.0322,0.0389,0.0438,0.0443,0.0451,0.0452,0.0453,0.0531,0.0533,0.0535,0.0537,0.0757,0.0764,0.0771,0.0774,0,0,0.0792,0.0795,0,0,0,0,0,0,0,0,0.036,0.0365,0.043,0.0435,0.0441,0.0487,0.051,0.0569,0.0531,0.0497,0.0536,0.0538,0.0683,0.0696,0.07,0.0784,0.0794,0.0793,0.0797,0.08,0.0802,0,0,0,0,0,0,0,0.0357,0.0362,0.0413,0.0431,0.0437,0.0451,0.0459,0.0521,0.058,0.05,0.0506,0.0514,0.0687,0.0692,0.0706,0.0797,0.0793,0.0799,0.0803,0.0806,0.0924,0.0923,0,0,0,0,0,0,0.035,0.036,0.0411,0.0415,0.0405,0.0451,0.046,0.0469,0.0576,0.0593,0.0512,0.0517,0.0679,0.0698,0.0714,0.0787,0.08,0.0807,0.0811,0.0925,0.0923,0.0922,0,0,0,0,0,0,0.0348,0.0354,0.0409,0.0389,0.0398,0.045,0.046,0.0469,0.0503,0.0584,0.0604,0.0539,0.0682,0.0705,0.0804,0.0794,0.081,0.0816,0.0926,0.0924,0.0923,0.0892,0,0,0,0,0,0,0.0346,0.0353,0.0362,0.0389,0.0399,0.0432,0.0458,0.0469,0.0503,0.0511,0.0613,0.0634,0.0685,0.0793,0.0811,0.0804,0.0822,0.0928,0.0925,0.0923,0.0894,0.089,0.0885,0,0,0,0,0,0.0343,0.0351,0.0362,0.0368,0.0408,0.0432,0.0438,0.0481,0.0503,0.0518,0.0597,0.0632,0.0791,0.08,0.0821,0.0815,0.0929,0.0926,0.0924,0.0897,0.0891,0.0885,0,0,0,0,0,0,0.0334,0.036,0.0373,0.0391,0.0416,0.0446,0.0465,0.0487,0.0554,0.0575,0.0651,0.0678,0.0749,0.0784,0.0791,0.0835,0.0851,0.0853,0.0823,0.0818,0.0814,0.0806,0.0828,0,0,0,0,0,0.033,0.0342,0.037,0.0385,0.0398,0.043,0.0448,0.0475,0.0531,0.0561,0.0634,0.0697,0.0744,0.0789,0.084,0.0888,0.087,0.0883,0.0879,0.0875,0.0878,0.0826,0.0817,0.0914,0.0914,0.0914,0,0,0.0332,0.0347,0.0356,0.0383,0.0406,0.043,0.0447,0.0478,0.0505,0.0578,0.0656,0.0699,0.0754,0.0802,0.0833,0.0841,0.0833,0.0872,0.0869,0.0874,0.0822,0.0813,0.0804,0.0912,0.0913,0.0913,0,0,0.034,0.0353,0.0369,0.039,0.0423,0.0437,0.0449,0.0493,0.0523,0.0594,0.0633,0.0674,0.0776,0.079,0.0813,0.0811,0.0812,0.0818,0.08,0.0749,0.0741,0.0733,0.0682,0.067,0.0815,0.0815,0.0815,0,0.0339,0.0368,0.0378,0.0403,0.0423,0.0443,0.047,0.0492,0.0567,0.059,0.0624,0.0712,0.0759,0.0782,0.0778,0.0801,0.0776,0.0823,0.0743,0.0735,0.0728,0.0678,0.0665,0.0813,0.0814,0.0814,0.0814,0,0.0369,0.0394,0.0406,0.0439,0.0455,0.0483,0.0508,0.0537,0.0573,0.0598,0.0646,0.0694,0.0743,0.074,0.0774,0.0737,0.0736,0.0743,0.0758,0.0717,0.0666,0.0653,0.0811,0.0811,0.0812,0.0812,0,0,0.0355,0.0415,0.0419,0.0443,0.048,0.0493,0.0525,0.0554,0.0576,0.0625,0.0649,0.0693,0.0705,0.0727,0.0742,0.0698,0.0618,0.0704,0.0702,0.0656,0.0503,0.0484,0.0469,0.0614,0.0612,0.0611,0.0482,0,0.0377,0.0427,0.0449,0.049,0.0517,0.0537,0.0566,0.0589,0.0616,0.0645,0.0649,0.0692,0.0701,0.0724,0.0676,0.0646,0.0587,0.0652,0.0549,0.0546,0.0536,0.0454,0.0605,0.0473,0.047,0.0468,0.0466,0,0.0397,0.0428,0.0484,0.0521,0.0534,0.0567,0.0596,0.0626,0.0649,0.0669,0.0681,0.0697,0.0664,0.0671,0.0567,0.0612,0.0553,0.0512,0.0506,0.0495,0.0504,0.0526,0.0444,0.0445,0.0447,0.0449,0.045,0,0.0382,0.044,0.0485,0.0507,0.0562,0.0592,0.0619,0.0648,0.0663,0.069,0.0691,0.0671,0.0659,0.0583,0.0515,0.0537,0.0382,0.0397,0.0315,0.0313,0.0387,0.0396,0.0293,0.0294,0.0294,0.0294,0.0295,0,0.0392,0.0417,0.0495,0.0524,0.0572,0.0608,0.0652,0.0675,0.0695,0.07,0.0709,0.069,0.0634,0.0555,0.049,0.036,0.0355,0.029,0.027,0.0375,0.0384,0.0377,0.0388,0.0289,0.029,0.0291,0.0292,0,0.0367,0.0422,0.0475,0.0551,0.0576,0.0618,0.0669,0.0693,0.0712,0.071,0.0717,0.068,0.0585,0.0507,0.0377,0.032,0.0211,0.0166,0.0274,0.0266,0.018,0.0191,0.0046,0.0044,0.0043,0.0041,0.004,0,0.0361,0.0397,0.0489,0.0538,0.0585,0.0646,0.0685,0.0711,0.0721,0.0697,0.0685,0.0609,0.0573,0.0364,0.0296,0.0146,0.0136,0.0077,0.0131,0.0155,0.015,0.0164,0.0177,0.0038,0.0037,0.0037,0.0036,0,0.0351,0.0398,0.044,0.0528,0.0594,0.064,0.069,0.0683,0.07,0.0706,0.0638,0.0561,0.0442,0.0336,0.0222,0.0123,0.0118,0.006,0.0063,0.0113,0.0143,0.0143,0.0157,0.0031,0.0031,0.0032,0.0032,0,0.0336,0.0368,0.0435,0.0507,0.0578,0.0617,0.0645,0.0648,0.0642,0.0622,0.0597,0.0504,0.0467,0.032,0.0216,0.0118,0.0098,0.0077,0.0079,0.0085,0.0151,0.0198,0.006,0,0,0,0,0,0.0327,0.0357,0.0413,0.0483,0.0545,0.0587,0.0634,0.0656,0.0661,0.0609,0.06,0.05,0.0349,0.0296,0.0187,0.018,0.0079,0.005,0.0056,-0.0001,0.0006,0.0077,0,0,0,0,0,0,0.0325,0.0365,0.0389,0.0433,0.0485,0.0534,0.0571,0.0585,0.0554,0.0562,0.0484,0.0472,0.0328,0.0405,0.0184,0.0157,0.0145,-0.0006,-0.0009,-0.0004,0.0002,0.0007,0.0082,0,0,0,0,0]}]]